Regional Weather Roundup
Issued by NWS Cleveland, OH

Home | Current Version | Previous Version | Graphics & Text | Print | Product List | Glossary On
Versions: 1 2 3 4 5 6 7 8 9 10 11 12 13 14 15 16 17 18 19 20 21 22 23 24 25 26 27 28 29 30 31 32 33 34 35 36 37 38 39 40 41 42 43 44 45 46 47 48 49 50
000
ASUS41 KCLE 281410
RWRCLE
OHIO REGIONAL WEATHER ROUNDUP
NATIONAL WEATHER SERVICE WILMINGTON, OH
1000 AM EDT SAT MAR 28 2015

NOTE: "FAIR" INDICATES FEW OR NO CLOUDS BELOW 12,000 FEET WITH NO
SIGNIFICANT WEATHER AND/OR OBSTRUCTIONS TO VISIBILITY.

OHZ001>008-015>018-024>027-034-035-043-044-281500-
   NORTHWEST OHIO

CITY           SKY/WX    TMP DP  RH WIND       PRES   REMARKS
DEFIANCE       SUNNY     23  10  57 N9        30.30R WCI  13
FINDLAY        SUNNY     23   9  55 NW10      30.26R WCI  12
TOLEDO EXPRESS MOSUNNY   21   8  57 N15       30.28R WCI   8
TOLEDO EXEC    SUNNY     24   8  50 N13       30.29R WCI  12
LIMA           SUNNY     22   9  57 NE10      30.25R WCI  11
$$

OHZ009>014-019>023-028>033-038-089-281500-
   NORTHEAST OHIO

CITY           SKY/WX    TMP DP  RH WIND       PRES   REMARKS
CLE-HOPKINS    SUNNY     20   5  52 N17G24    30.24R WCI   5
CLE-LAKEFRONT  SUNNY     21   7  54 N13       30.23R WCI   9
CUY CO. ARPT   MOSUNNY   19   9  63 N15G23    30.21R WCI   5
LORAIN-ELYRIA  SUNNY     20   6  55 N17       30.23R WCI   5
ASHTABULA      CLOUDY    18   7  62 VRB7      30.18R WCI   9
AKRON-CANTON   FLURRIES  21   5  50 N16G28    30.15R WCI   7
WOOSTER        CLOUDY    20  11  68 N17G24    30.19R WCI   5
MANSFIELD      PTSUNNY   18  11  74 NW10      30.19R WCI   6
YOUNGSTOWN     PTSUNNY   17   7  64 N10       30.14R WCI   5
$$

OHZ042-051>053-060>062-070>072-077>081-281500-
  SOUTHWEST OHIO

CITY           SKY/WX    TMP DP  RH WIND       PRES   REMARKS
CINC-COVINGTON FAIR      26  16  65 VRB6      30.25R WCI  19
CINC-LUNKEN    MOSUNNY   26  15  63 VRB3      30.29R
HAMILTON       MOSUNNY   27  16  63 NE8       30.28R WCI  19
DAYTON         MOSUNNY   24  10  55 NE12      30.26R WCI  13
WRIGHT-PAT AFB MOSUNNY   23   9  54 N12       30.26R WCI  11
DAYTON GENERAL MOSUNNY   24  14  65 N7        30.24R WCI  16
WILMINGTON     CLOUDY    22  12  65 N12       30.24R WCI  10
$$

OHZ036-037-039>041-045>050-054>059-063>069-073>076-082>088-281500-
  CENTRAL AND SOUTHEAST OHIO

CITY           SKY/WX    TMP DP  RH WIND       PRES   REMARKS
COLUMBUS       PTSUNNY   22   9  57 N12       30.24R WCI  10
OSU AIRPORT    MOSUNNY   21   8  57 N13       30.24R WCI   9
BOLTON FIELD   MOSUNNY   21   9  58 N10       30.25  WCI  10
RICKENBACK AFB MOSUNNY   22   8  54 N8        30.26R WCI  13
NEWARK         SUNNY     20  10  65 NW10      30.23R WCI   9
MARION         SUNNY     20   9  62 N10       30.24R WCI   9
LANCASTER      MOSUNNY   22  10  60 N12G18    30.25R WCI  10
ZANESVILLE     PTSUNNY   19   7  59 NW8       30.21R WCI   9
NEW PHILLY     CLOUDY    21   9  59 NW14G20   30.20R WCI   8
$$


USA.gov is the U.S. government's official web portal to all federal, state and local government web resources and services.